Weather History for Findlay, OH

Change the Weather History Date:

Sunday, October 21, 2012

  Actual Average Record
Temperature  
Mean Temperature 50 °F -  
Max Temperature 62 °F 59 °F 83 °F (1953)
Min Temperature 39 °F 41 °F 21 °F (1952)
Degree Days  
Heating Degree Days 14    
Moisture  
Dew Point 41 °F    
Average Humidity 71    
Maximum Humidity 93    
Minimum Humidity 44    
Precipitation  
Precipitation 0.00 in - - ()
Sea Level Pressure  
Sea Level Pressure 30.06 in    
Wind  
Wind Speed 6 mph (SSW)    
Max Wind Speed 10 mph    
Max Gust Speed -    
Visibility 10 miles    
Events      
Averages and records for this station are not official NWS values.
T = Trace of Precipitation, MM = Missing Value Source: NWS Daily Summary

Daily Weather History Graph

Daily Weather History Graph

Search for Another Location

Airport:

Trip Planner

Search our weather history database for the weather conditions in past years. The results will help you decide how hot, cold, wet, or windy it might be!

Date:

Astronomy

Oct. 21, 2012 Rise Set
Actual Time 7:53 AM EDT 6:44 PM EDT
Civil Twilight 7:25 AM EDT 7:12 PM EDT
Nautical Twilight 6:53 AM EDT 7:44 PM EDT
Astronomical Twilight 6:21 AM EDT 8:16 PM EDT
Moon 2:14 PM EDT (10/21) No Moon Set
Length of Visible Light 11h 47m
Length of Day
10h 51m
Waxing Crescent, 45% of the Moon is Illuminated
Oct 21
Waxing Crescent
Oct 21
First Quarter
Oct 29
Full
Nov 6
Last Quarter
Nov 13
New

Hourly Weather History & Observations

Time (EDT) Temp. Windchill Dew Point Humidity Pressure Visibility Wind Dir Wind Speed Gust Speed Precip Events Conditions
12:53 AM 48.9 °F - 41.0 °F 74% 29.95 in 10.0 mi WSW 6.9 mph - N/A   Overcast
1:53 AM 48.0 °F - 41.0 °F 77% 29.96 in 10.0 mi SW 6.9 mph - N/A   Overcast
2:53 AM 46.9 °F - 41.0 °F 80% 30.00 in 10.0 mi WSW 6.9 mph - N/A   Overcast
3:53 AM 46.0 °F 43.1 °F 39.9 °F 79% 30.01 in 10.0 mi WSW 5.8 mph - N/A   Overcast
4:53 AM 45.0 °F 41.8 °F 39.9 °F 82% 30.03 in 10.0 mi WSW 5.8 mph - N/A   Overcast
5:53 AM 42.1 °F 38.4 °F 39.0 °F 89% 30.05 in 10.0 mi SW 5.8 mph - N/A   Clear
6:53 AM 39.9 °F 35.8 °F 37.9 °F 93% 30.07 in 10.0 mi SW 5.8 mph - N/A   Clear
7:53 AM 39.0 °F 36.8 °F 37.0 °F 93% 30.08 in 8.0 mi SSW 3.5 mph - N/A   Clear
8:53 AM 42.1 °F 39.2 °F 39.9 °F 92% 30.09 in 7.0 mi SSW 4.6 mph - N/A   Clear
9:53 AM 48.0 °F - 42.1 °F 80% 30.10 in 10.0 mi WSW 3.5 mph - N/A   Clear
10:53 AM 54.0 °F - 44.1 °F 69% 30.12 in 10.0 mi Variable 4.6 mph - N/A   Clear
11:53 AM 55.0 °F - 42.1 °F 62% 30.11 in 10.0 mi SW 8.1 mph - N/A   Partly Cloudy
12:53 PM 57.0 °F - 41.0 °F 55% 30.11 in 10.0 mi WSW 8.1 mph - N/A   Partly Cloudy
1:53 PM 60.1 °F - 42.1 °F 51% 30.09 in 10.0 mi South 10.4 mph - N/A   Clear
2:53 PM 59.0 °F - 39.9 °F 49% 30.08 in 10.0 mi South 8.1 mph - N/A   Clear
3:53 PM 61.0 °F - 42.1 °F 50% 30.06 in 10.0 mi South 9.2 mph - N/A   Clear
4:53 PM 62.1 °F - 39.9 °F 44% 30.06 in 10.0 mi SSW 8.1 mph - N/A   Clear
5:53 PM 60.1 °F - 41.0 °F 49% 30.06 in 10.0 mi SSW 9.2 mph - N/A   Clear
6:53 PM 55.9 °F - 42.1 °F 60% 30.07 in 10.0 mi South 3.5 mph - N/A   Clear
7:53 PM 55.0 °F - 43.0 °F 64% 30.08 in 10.0 mi SSE 3.5 mph - N/A   Clear
8:53 PM 52.0 °F - 43.0 °F 71% 30.08 in 10.0 mi SSE 3.5 mph - N/A   Clear
9:53 PM 48.0 °F - 43.0 °F 83% 30.09 in 10.0 mi SSE 4.6 mph - N/A   Clear
10:53 PM 48.9 °F - 43.0 °F 80% 30.09 in 10.0 mi SE 6.9 mph - N/A   Clear
11:53 PM 46.9 °F - 43.0 °F 86% 30.09 in 10.0 mi SSE 6.9 mph - N/A   Clear